User: anonymous   Login
Location: Unspecified
(0.0000°N, 0.0000°E)
Time: 22:24:47
(UTC+00:00)
Language:

ARGOS - Orbit

View from above orbital plane
View from above orbital plane
View from above satellite
View from above satellite

Ground track
Ground track

The orbit data is extracted from the following two-line orbital elements,

1 25634U 99008A   18167.73111526 -.00000011 +00000-0 +15037-4 0  9998
2 25634 098.5670 224.6997 0009299 231.4108 128.6236 14.19335142999709
Epoch (UTC): 16 June 2018 17:32:48
Eccentricity: 0.0009299
inclination: 98.5670°
perigee height: 821 km
apogee height: 834 km
right ascension of ascending node: 224.6997°
argument of perigee: 231.4108°
revolutions per day: 14.19335142
mean anomaly at epoch: 128.6236°
orbit number at epoch: 99970

The dashed part of the orbit path shows where the satellite is in the earth's shadow,  

DLR